User: anonymous   Login
Location: �terpigny
(49.8910°N, 2.9249°E)
Time: 14:24:43
(UTC+00:00)
Language:

NOAA 19 - Orbit

View from above orbital plane
View from above orbital plane
View from above satellite
View from above satellite

Ground track
Ground track

The orbit data is extracted from the following two-line orbital elements,

1 33591U 09005A   22183.15292743  .00000118  00000-0  88911-4 0  9995
2 33591  99.1464 217.5979 0014584 143.6410 216.5754 14.12582858690523
Epoch (UTC): 02 July 2022 03:40:12
Eccentricity: 0.0014584
inclination: 99.1464°
perigee height: 840 km
apogee height: 861 km
right ascension of ascending node: 217.5979°
argument of perigee: 143.6410°
revolutions per day: 14.12582858
mean anomaly at epoch: 216.5754°
orbit number at epoch: 69052

The dashed part of the orbit path shows where the satellite is in the earth's shadow,  

DLR